Nakashibetsu, Japan

6:14 PM JST on September 25, 2017 (GMT +0900)
Nakashibetsu

Weather History for RJCN - August, 2013

Change the Weather History Date:

Saturday, August 24, 2013

  Actual Average Record
Temperature  
Mean Temperature 65 °F -  
Max Temperature 68 °F 66 °F 82 °F (2014)
Min Temperature 62 °F 58 °F 55 °F (1997)
Growing Degree Days 15 (Base 50)    
Moisture  
Dew Point 65 °F    
Average Humidity 100    
Maximum Humidity 100    
Minimum Humidity 100    
Precipitation  
Precipitation 0.00 in - - ()
Sea Level Pressure  
Sea Level Pressure 29.58 in    
Wind  
Wind Speed 6 mph ()    
Max Wind Speed 13 mph    
Max Gust Speed -    
Visibility 2.3 miles    
Events Fog , Rain , Thunderstorm    
Averages and records for this station are not official NWS values.
T = Trace of Precipitation, MM = Missing Value Source: Averaged Metar Reports

Daily Weather History Graph

Daily Weather History Graph

Search for Another Location

Airport or City:

Trip Planner

Search our weather history database for the weather conditions in past years. The results will help you decide how hot, cold, wet, or windy it might be!

Date:

Astronomy

Aug. 24, 2013 Rise Set
Actual Time 4:34 AM JST 6:09 PM JST
Civil Twilight 4:04 AM JST 6:39 PM JST
Nautical Twilight 3:27 AM JST 7:16 PM JST
Astronomical Twilight 2:48 AM JST 7:55 PM JST
Moon 7:31 PM JST (8/24) 8:00 AM JST (8/24)
Length of Visible Light 14h 35m
Length of Day
13h 35m
Waning Gibbous, 88% of the Moon is Illuminated
Aug 24
Waning Gibbous
Aug 28
Last Quarter
Sep 5
New
Sep 13
First Quarter
Sep 19
Full

Hourly Weather History & Observations

Time (JST) Temp. Dew Point Humidity Pressure Visibility Wind Dir Wind Speed Gust Speed Precip Events Conditions
8:25 AM 66.2 °F 66.2 °F 100% 29.62 in 0.4 mi NNE 4.6 mph - N/A Fog Fog
8:32 AM 66.2 °F 66.2 °F 100% 29.62 in 0.6 mi NNE 4.6 mph - N/A Fog Fog
8:34 AM 66.2 °F 66.2 °F 100% 29.62 in 0.6 mi NNE 4.6 mph - N/A   Mostly Cloudy
8:38 AM 66.2 °F 66.2 °F 100% 29.62 in 0.9 mi NNE 4.6 mph - N/A   Mostly Cloudy
8:40 AM 66.2 °F 66.2 °F 100% 29.62 in 1.0 mi NNE 4.6 mph - N/A   Mostly Cloudy
9:00 AM 66.2 °F 66.2 °F 100% 29.62 in 1.2 mi NNE 3.5 mph - N/A   Mostly Cloudy
9:05 AM 66.2 °F 66.2 °F 100% 29.62 in 1.5 mi NE 3.5 mph - N/A   Mostly Cloudy
10:00 AM 66.2 °F 66.2 °F 100% 29.59 in 2.2 mi NE 4.6 mph - N/A Rain Rain Showers
10:08 AM 66.2 °F 66.2 °F 100% 29.59 in 2.8 mi NE 4.6 mph - N/A Rain Light Rain Showers
10:15 AM 66.2 °F 66.2 °F 100% 29.59 in 2.8 mi NE 4.6 mph - N/A Rain Rain Showers
10:34 AM 66.2 °F 66.2 °F 100% 29.59 in 2.8 mi NE 4.6 mph - N/A Rain Heavy Rain Showers
11:00 AM 66.2 °F 66.2 °F 100% 29.59 in 2.8 mi ENE 6.9 mph - N/A Rain , Thunderstorm Thunderstorms and Rain
11:18 AM 66.2 °F 66.2 °F 100% 29.59 in 3.1 mi ENE 5.8 mph - N/A Rain , Thunderstorm Heavy Thunderstorms and Rain
11:29 AM 66.2 °F 66.2 °F 100% 29.59 in 3.7 mi ENE 8.1 mph - N/A Rain , Thunderstorm Thunderstorms and Rain
11:37 AM 66.2 °F 66.2 °F 100% 29.59 in 4.3 mi ENE 8.1 mph - N/A Rain , Thunderstorm Light Thunderstorms and Rain
11:42 AM 66.2 °F 66.2 °F 100% 29.59 in 6.2 mi ENE 9.2 mph - N/A Rain , Thunderstorm Thunderstorms and Rain
12:00 PM 64.4 °F 64.4 °F 100% 29.56 in 4.3 mi NE 6.9 mph - N/A Rain , Thunderstorm Thunderstorms and Rain
12:07 PM 66.2 °F 66.2 °F 100% 29.56 in 4.3 mi NE 6.9 mph - N/A Rain , Thunderstorm Light Thunderstorms and Rain
1:00 PM 68.0 °F 68.0 °F 100% 29.56 in 6.2 mi NE 10.4 mph - N/A Rain , Thunderstorm Light Thunderstorms and Rain
2:00 PM 66.2 °F 66.2 °F 100% 29.56 in 6.2 mi NNE 10.4 mph - N/A Thunderstorm Thunderstorm
2:14 PM 64.4 °F 64.4 °F 100% 29.56 in - North 10.4 mph - N/A Thunderstorm Mostly Cloudy
2:20 PM 64.4 °F 64.4 °F 100% 29.56 in - NNE 10.4 mph - N/A Thunderstorm Mostly Cloudy
2:23 PM 64.4 °F 64.4 °F 100% 29.56 in 0.9 mi NNE 10.4 mph - N/A Rain , Thunderstorm Light Thunderstorms and Rain
2:27 PM 64.4 °F 64.4 °F 100% 29.56 in 0.7 mi NNE 11.5 mph - N/A Rain , Thunderstorm Light Thunderstorms and Rain
2:33 PM 64.4 °F 64.4 °F 100% 29.56 in 0.6 mi NE 10.4 mph - N/A Rain , Thunderstorm Light Thunderstorms and Rain
2:41 PM 62.6 °F 62.6 °F 100% 29.56 in 0.6 mi NNE 12.7 mph - N/A Rain , Thunderstorm Light Thunderstorms and Rain
3:00 PM 62.6 °F 62.6 °F 100% 29.56 in 0.7 mi NE 11.5 mph - N/A Rain Light Rain Showers
4:00 PM 62.6 °F 62.6 °F 100% 29.56 in 0.9 mi ENE 11.5 mph - N/A Rain Light Rain Showers
4:03 PM 62.6 °F 62.6 °F 100% 29.56 in 1.5 mi ENE 11.5 mph - N/A Rain Light Rain Showers
4:27 PM 62.6 °F 62.6 °F 100% 29.56 in 1.9 mi ENE 9.2 mph - N/A Rain Light Rain Showers
5:00 PM 62.6 °F 62.6 °F 100% 29.59 in 1.4 mi NE 9.2 mph - N/A Rain Light Rain Showers
6:00 PM 62.6 °F 62.6 °F 100% 29.59 in 1.5 mi NE 8.1 mph - N/A Rain Light Rain Showers